{"data":{"norad_id":67607,"intl_designator":"2026-018U","name":"STARLINK-36351","alt_names":[],"object_type":"PAYLOAD","status":"ACTIVE","operator":null,"country":"US","launch_date":"2026-01-29","launch_site_code":"AFWTR","launch_vehicle":null,"mission":null,"orbit_class":"UNKNOWN","rcs_meters":null,"size_class":null,"mass_kg":null,"dimensions":null,"purposes":["comms"],"wikipedia_slug":null,"has_3d_model":false,"image_url":null,"decayed_at":null,"tle_current":{"epoch":"2026-09-19T09:38:37.920192Z","epoch_age_seconds":164049,"freshness":"FRESH","line1":"1 67607U 26018U   26262.40182778  .00015690  00000+0  48751-3 0  9996","line2":"2 67607  97.2852 325.9009 0000618  50.8282 309.3016 15.33432245 37025","mean_motion":15.33432245,"eccentricity":6.18e-5,"inclination_deg":97.2852,"raan_deg":325.9009,"arg_perigee_deg":50.8282,"mean_anomaly_deg":309.3016,"bstar":0.00048751,"rev_number":3702,"period_min":93.906985763169,"perigee_km":465.15818286718,"apogee_km":466.00406642738,"semimajor_km":6843.7181246473,"source":"CELESTRAK","updated_at":"2026-09-20T09:00:43.606925Z"}}}